Time,TemperatureF,DewpointF,PressureIn,WindDirection,WindDirectionDegrees,WindSpeedMPH,WindSpeedGustMPH,Humidity,HourlyPrecipIn,Conditions,Clouds,dailyrainin,SoftwareType,DateUTC
2013-03-11 00:00:00,50.8,31.3,30.15,NE,56,0.0,3.0,47,0.00,,---,0.00,VWS V14.01,2013-03-11 07:00:00,
2013-03-11 00:05:00,50.7,31.2,30.15,NE,56,4.0,5.0,47,0.00,,---,0.00,VWS V14.01,2013-03-11 07:05:00,
2013-03-11 00:10:00,50.5,31.0,30.15,NE,56,3.0,5.0,47,0.00,,---,0.00,VWS V14.01,2013-03-11 07:10:00,
2013-03-11 00:15:00,50.5,30.5,30.15,NE,55,4.0,4.0,46,0.00,,---,0.00,VWS V14.01,2013-03-11 07:15:00,
2013-03-11 00:20:00,50.6,30.6,30.15,NE,56,2.0,4.0,46,0.01,,---,0.01,VWS V14.01,2013-03-11 07:20:00,
2013-03-11 00:25:00,50.6,30.6,30.15,NE,55,2.0,4.0,46,0.01,,---,0.01,VWS V14.01,2013-03-11 07:25:00,
2013-03-11 00:30:00,50.6,30.6,30.15,NE,55,5.0,5.0,46,0.01,,---,0.01,VWS V14.01,2013-03-11 07:30:00,
2013-03-11 00:36:00,50.5,30.5,30.15,NE,56,2.0,5.0,46,0.01,,---,0.01,VWS V14.01,2013-03-11 07:36:00,
2013-03-11 00:41:00,50.5,30.5,30.15,NE,55,2.0,5.0,46,0.01,,---,0.01,VWS V14.01,2013-03-11 07:41:00,
2013-03-11 00:46:00,50.5,30.5,30.15,NE,56,3.0,4.0,46,0.01,,---,0.01,VWS V14.01,2013-03-11 07:46:00,
2013-03-11 00:51:00,50.5,30.0,30.15,NE,56,0.0,4.0,45,0.01,,---,0.01,VWS V14.01,2013-03-11 07:51:00,
2013-03-11 00:56:00,50.6,30.1,30.15,NE,55,4.0,6.0,45,0.01,,---,0.01,VWS V14.01,2013-03-11 07:56:00,
2013-03-11 01:01:00,50.8,30.2,30.15,ENE,59,4.0,5.0,45,0.01,,---,0.01,VWS V14.01,2013-03-11 08:01:00,
2013-03-11 01:06:00,50.9,29.8,30.15,ENE,60,3.0,5.0,44,0.01,,---,0.01,VWS V14.01,2013-03-11 08:06:00,
2013-03-11 01:11:00,51.2,30.0,30.15,ENE,60,0.0,5.0,44,0.01,,---,0.01,VWS V14.01,2013-03-11 08:11:00,
2013-03-11 01:16:00,51.2,30.0,30.15,ENE,60,0.0,0.0,44,0.01,,---,0.01,VWS V14.01,2013-03-11 08:16:00,
2013-03-11 01:20:00,51.1,30.5,30.15,ENE,60,1.0,5.0,45,0.01,,---,0.01,VWS V14.01,2013-03-11 08:20:00,
2013-03-11 01:26:00,50.9,30.9,30.15,ENE,60,2.0,5.0,46,0.01,,---,0.01,VWS V14.01,2013-03-11 08:26:00,
2013-03-11 01:30:00,50.6,30.6,30.15,ENE,60,5.0,5.0,46,0.00,,---,0.01,VWS V14.01,2013-03-11 08:30:00,
2013-03-11 01:35:00,50.3,30.9,30.16,ENE,60,4.0,6.0,47,0.00,,---,0.01,VWS V14.01,2013-03-11 08:35:00,
2013-03-11 01:40:00,50.1,30.1,30.15,ENE,60,0.0,6.0,46,0.00,,---,0.01,VWS V14.01,2013-03-11 08:40:00,
2013-03-11 01:45:00,50.0,30.6,30.15,ENE,60,3.0,3.0,47,0.00,,---,0.01,VWS V14.01,2013-03-11 08:45:00,
2013-03-11 01:50:00,49.9,30.5,30.15,ENE,60,2.0,4.0,47,0.00,,---,0.01,VWS V14.01,2013-03-11 08:50:00,
2013-03-11 01:55:00,49.9,31.0,30.15,ENE,60,3.0,4.0,48,0.00,,---,0.01,VWS V14.01,2013-03-11 08:55:00,
2013-03-11 02:01:00,49.7,30.8,30.15,ENE,60,0.0,1.0,48,0.00,,---,0.01,VWS V14.01,2013-03-11 09:01:00,
2013-03-11 02:06:00,49.5,30.6,30.15,ENE,59,2.0,3.0,48,0.00,,---,0.01,VWS V14.01,2013-03-11 09:06:00,
2013-03-11 02:11:00,49.4,31.1,30.15,ENE,61,2.0,3.0,49,0.00,,---,0.01,VWS V14.01,2013-03-11 09:11:00,
2013-03-11 02:16:00,49.2,30.9,30.15,ENE,60,3.0,3.0,49,0.00,,---,0.01,VWS V14.01,2013-03-11 09:16:00,
2013-03-11 02:21:00,49.1,31.3,30.15,ENE,60,2.0,4.0,50,0.00,,---,0.01,VWS V14.01,2013-03-11 09:21:00,
2013-03-11 02:26:00,48.9,31.1,30.15,ENE,60,1.0,4.0,50,0.00,,---,0.01,VWS V14.01,2013-03-11 09:26:00,
2013-03-11 02:31:00,48.7,30.9,30.14,ENE,60,2.0,2.0,50,0.00,,---,0.01,VWS V14.01,2013-03-11 09:31:00,
2013-03-11 02:36:00,48.6,30.8,30.15,ENE,60,2.0,4.0,50,0.00,,---,0.01,VWS V14.01,2013-03-11 09:36:00,
2013-03-11 02:41:00,48.5,30.7,30.14,ENE,60,3.0,4.0,50,0.00,,---,0.01,VWS V14.01,2013-03-11 09:41:00,
2013-03-11 02:46:00,48.3,30.0,30.14,ENE,60,3.0,3.0,49,0.00,,---,0.01,VWS V14.01,2013-03-11 09:46:00,
2013-03-11 02:51:00,48.2,30.5,30.14,ENE,60,4.0,5.0,50,0.00,,---,0.01,VWS V14.01,2013-03-11 09:51:00,
2013-03-11 02:56:00,48.3,30.0,30.14,ENE,60,2.0,5.0,49,0.00,,---,0.01,VWS V14.01,2013-03-11 09:56:00,
2013-03-11 03:01:00,48.4,30.1,30.14,ENE,60,0.0,3.0,49,0.00,,---,0.01,VWS V14.01,2013-03-11 10:01:00,
2013-03-11 03:06:00,48.5,30.2,30.14,ENE,59,5.0,5.0,49,0.00,,---,0.01,VWS V14.01,2013-03-11 10:06:00,
2013-03-11 03:11:00,48.5,30.7,30.13,ENE,60,4.0,5.0,50,0.00,,---,0.01,VWS V14.01,2013-03-11 10:11:00,
2013-03-11 03:16:00,48.5,30.2,30.13,ENE,59,1.0,3.0,49,0.00,,---,0.01,VWS V14.01,2013-03-11 10:16:00,
2013-03-11 03:21:00,48.5,29.7,30.13,ENE,59,2.0,3.0,48,0.00,,---,0.01,VWS V14.01,2013-03-11 10:21:00,
2013-03-11 03:26:00,48.6,29.8,30.13,NE,54,3.0,8.0,48,0.00,,---,0.01,VWS V14.01,2013-03-11 10:26:00,
2013-03-11 03:31:00,48.7,30.4,30.13,NE,53,4.0,6.0,49,0.00,,---,0.01,VWS V14.01,2013-03-11 10:31:00,
2013-03-11 03:36:00,48.7,29.9,30.12,NE,53,4.0,6.0,48,0.00,,---,0.01,VWS V14.01,2013-03-11 10:36:00,
2013-03-11 03:41:00,48.8,30.0,30.12,NE,52,4.0,6.0,48,0.00,,---,0.01,VWS V14.01,2013-03-11 10:41:00,
2013-03-11 03:46:00,48.8,29.5,30.12,NE,51,3.0,5.0,47,0.00,,---,0.01,VWS V14.01,2013-03-11 10:46:00,
2013-03-11 03:51:00,49.1,29.8,30.12,NE,48,2.0,6.0,47,0.00,,---,0.01,VWS V14.01,2013-03-11 10:51:00,
2013-03-11 03:56:00,49.2,29.9,30.12,NE,55,2.0,9.0,47,0.00,,---,0.01,VWS V14.01,2013-03-11 10:56:00,
2013-03-11 04:01:00,49.4,29.5,30.12,NE,46,3.0,6.0,46,0.00,,---,0.01,VWS V14.01,2013-03-11 11:01:00,
2013-03-11 04:07:00,49.6,29.7,30.12,NE,52,4.0,7.0,46,0.00,,---,0.01,VWS V14.01,2013-03-11 11:07:00,
2013-03-11 04:12:00,49.6,30.2,30.12,NE,53,6.0,8.0,47,0.00,,---,0.01,VWS V14.01,2013-03-11 11:12:00,
2013-03-11 04:17:00,49.6,29.7,30.12,ENE,61,7.0,7.0,46,0.00,,---,0.01,VWS V14.01,2013-03-11 11:17:00,
2013-03-11 04:22:00,49.8,29.3,30.11,NE,52,6.0,7.0,45,0.00,,---,0.01,VWS V14.01,2013-03-11 11:22:00,
2013-03-11 04:27:00,50.0,29.5,30.12,NE,55,4.0,9.0,45,0.00,,---,0.01,VWS V14.01,2013-03-11 11:27:00,
2013-03-11 04:32:00,50.1,29.6,30.12,NE,55,4.0,6.0,45,0.00,,---,0.01,VWS V14.01,2013-03-11 11:32:00,
2013-03-11 04:37:00,50.1,29.6,30.12,NE,56,3.0,7.0,45,0.00,,---,0.01,VWS V14.01,2013-03-11 11:37:00,
2013-03-11 04:42:00,50.1,29.6,30.11,ENE,57,4.0,8.0,45,0.00,,---,0.01,VWS V14.01,2013-03-11 11:42:00,
2013-03-11 04:47:00,50.0,29.5,30.11,ENE,57,4.0,5.0,45,0.00,,---,0.01,VWS V14.01,2013-03-11 11:47:00,
2013-03-11 04:52:00,50.0,29.5,30.11,ENE,57,4.0,5.0,45,0.00,,---,0.01,VWS V14.01,2013-03-11 11:52:00,
2013-03-11 04:57:00,50.0,29.5,30.11,NE,56,1.0,5.0,45,0.00,,---,0.01,VWS V14.01,2013-03-11 11:57:00,
2013-03-11 05:02:00,50.1,29.6,30.12,NE,38,3.0,5.0,45,0.00,,---,0.01,VWS V14.01,2013-03-11 12:02:00,
2013-03-11 05:07:00,50.1,29.6,30.12,NE,55,4.0,6.0,45,0.00,,---,0.01,VWS V14.01,2013-03-11 12:07:00,
2013-03-11 05:12:00,50.2,29.7,30.12,NE,52,6.0,10.0,45,0.00,,---,0.01,VWS V14.01,2013-03-11 12:12:00,
2013-03-11 05:17:00,50.2,29.7,30.12,NE,53,6.0,7.0,45,0.00,,---,0.01,VWS V14.01,2013-03-11 12:17:00,
2013-03-11 05:22:00,50.3,29.8,30.12,NE,49,5.0,10.0,45,0.00,,---,0.01,VWS V14.01,2013-03-11 12:22:00,
2013-03-11 05:27:00,50.2,29.7,30.12,NE,50,5.0,10.0,45,0.00,,---,0.01,VWS V14.01,2013-03-11 12:27:00,
2013-03-11 05:32:00,50.2,29.7,30.12,NE,54,4.0,7.0,45,0.00,,---,0.01,VWS V14.01,2013-03-11 12:32:00,
2013-03-11 05:37:00,50.1,29.6,30.12,NE,53,4.0,7.0,45,0.00,,---,0.01,VWS V14.01,2013-03-11 12:37:00,
2013-03-11 05:42:00,50.1,29.6,30.12,NE,53,2.0,7.0,45,0.00,,---,0.01,VWS V14.01,2013-03-11 12:42:00,
2013-03-11 05:47:00,50.0,29.0,30.12,NE,53,6.0,11.0,44,0.00,,---,0.01,VWS V14.01,2013-03-11 12:47:00,
2013-03-11 05:52:00,49.9,29.4,30.12,NE,54,3.0,11.0,45,0.00,,---,0.01,VWS V14.01,2013-03-11 12:52:00,
2013-03-11 05:57:00,50.0,29.5,30.12,NE,55,3.0,11.0,45,0.00,,---,0.01,VWS V14.01,2013-03-11 12:57:00,
2013-03-11 06:02:00,50.0,29.5,30.12,ENE,58,4.0,7.0,45,0.00,,---,0.01,VWS V14.01,2013-03-11 13:02:00,
2013-03-11 06:07:00,50.1,29.0,30.12,NE,56,2.0,7.0,44,0.00,,---,0.01,VWS V14.01,2013-03-11 13:07:00,
2013-03-11 06:12:00,50.2,29.1,30.12,NE,55,3.0,7.0,44,0.00,,---,0.01,VWS V14.01,2013-03-11 13:12:00,
2013-03-11 06:18:00,50.3,28.1,30.12,NE,55,2.0,4.0,42,0.00,,---,0.01,VWS V14.01,2013-03-11 13:18:00,
2013-03-11 06:22:00,50.4,28.8,30.12,NE,55,2.0,5.0,43,0.00,,---,0.01,VWS V14.01,2013-03-11 13:22:00,
2013-03-11 06:28:00,50.5,28.9,30.12,NE,55,2.0,5.0,43,0.00,,---,0.01,VWS V14.01,2013-03-11 13:28:00,
2013-03-11 06:33:00,50.5,28.9,30.12,NE,45,3.0,5.0,43,0.00,,---,0.01,VWS V14.01,2013-03-11 13:33:00,
2013-03-11 06:38:00,50.7,29.0,30.12,NE,52,6.0,9.0,43,0.00,,---,0.01,VWS V14.01,2013-03-11 13:38:00,
2013-03-11 06:43:00,50.8,29.1,30.12,NE,53,6.0,10.0,43,0.00,,---,0.01,VWS V14.01,2013-03-11 13:43:00,
2013-03-11 06:48:00,50.8,29.1,30.12,NE,51,4.0,9.0,43,0.00,,---,0.01,VWS V14.01,2013-03-11 13:48:00,
2013-03-11 06:53:00,50.8,29.1,30.13,NE,52,4.0,9.0,43,0.00,,---,0.01,VWS V14.01,2013-03-11 13:53:00,
2013-03-11 06:58:00,50.7,29.0,30.13,NE,51,4.0,9.0,43,0.00,,---,0.01,VWS V14.01,2013-03-11 13:58:00,
2013-03-11 07:03:00,50.7,29.0,30.13,NE,51,2.0,4.0,43,0.00,,---,0.01,VWS V14.01,2013-03-11 14:03:00,
2013-03-11 07:08:00,50.6,29.0,30.13,NE,51,3.0,4.0,43,0.00,,---,0.01,VWS V14.01,2013-03-11 14:08:00,
2013-03-11 07:13:00,50.6,29.0,30.13,NE,51,3.0,5.0,43,0.00,,---,0.01,VWS V14.01,2013-03-11 14:13:00,
2013-03-11 07:18:00,50.5,29.4,30.13,NE,51,3.0,3.0,44,0.00,,---,0.01,VWS V14.01,2013-03-11 14:18:00,
2013-03-11 07:23:00,50.3,29.8,30.13,NE,51,3.0,6.0,45,0.00,,---,0.01,VWS V14.01,2013-03-11 14:23:00,
2013-03-11 07:28:00,50.1,29.6,30.14,NE,51,1.0,6.0,45,0.00,,---,0.01,VWS V14.01,2013-03-11 14:28:00,
2013-03-11 07:33:00,50.0,30.0,30.14,NE,49,4.0,5.0,46,0.00,,---,0.01,VWS V14.01,2013-03-11 14:33:00,
2013-03-11 07:38:00,49.9,29.4,30.14,NE,50,4.0,5.0,45,0.00,,---,0.01,VWS V14.01,2013-03-11 14:38:00,
2013-03-11 07:43:00,49.9,30.0,30.14,NE,51,4.0,5.0,46,0.00,,---,0.01,VWS V14.01,2013-03-11 14:43:00,
2013-03-11 07:48:00,50.0,30.0,30.14,NE,51,4.0,5.0,46,0.00,,---,0.01,VWS V14.01,2013-03-11 14:48:00,
2013-03-11 07:53:00,50.0,30.0,30.14,NE,51,4.0,5.0,46,0.00,,---,0.01,VWS V14.01,2013-03-11 14:53:00,
2013-03-11 07:58:00,50.1,30.1,30.14,NE,51,3.0,5.0,46,0.00,,---,0.01,VWS V14.01,2013-03-11 14:58:00,
2013-03-11 08:03:00,50.3,30.9,30.15,NE,51,0.0,3.0,47,0.00,,---,0.01,VWS V14.01,2013-03-11 15:03:00,
2013-03-11 08:08:00,50.6,30.6,30.15,NE,51,3.0,3.0,46,0.00,,---,0.01,VWS V14.01,2013-03-11 15:08:00,
2013-03-11 08:13:00,51.0,31.0,30.15,NE,51,2.0,4.0,46,0.00,,---,0.01,VWS V14.01,2013-03-11 15:13:00,
2013-03-11 08:18:00,51.4,31.3,30.15,NE,51,1.0,2.0,46,0.00,,---,0.01,VWS V14.01,2013-03-11 15:18:00,
2013-03-11 08:23:00,51.8,32.2,30.15,NE,51,4.0,5.0,47,0.00,,---,0.01,VWS V14.01,2013-03-11 15:23:00,
2013-03-11 08:28:00,52.3,32.2,30.15,NE,51,2.0,5.0,46,0.00,,---,0.01,VWS V14.01,2013-03-11 15:28:00,
2013-03-11 08:33:00,52.7,32.5,30.16,NE,51,1.0,4.0,46,0.00,,---,0.01,VWS V14.01,2013-03-11 15:33:00,
2013-03-11 08:38:00,53.2,32.4,30.16,NE,51,0.0,4.0,45,0.00,,---,0.01,VWS V14.01,2013-03-11 15:38:00,
2013-03-11 08:43:00,53.7,32.3,30.16,NE,51,0.0,4.0,44,0.00,,---,0.01,VWS V14.01,2013-03-11 15:43:00,
2013-03-11 08:48:00,54.3,32.9,30.16,NE,51,1.0,3.0,44,0.00,,---,0.01,VWS V14.01,2013-03-11 15:48:00,
2013-03-11 08:53:00,55.1,33.6,30.16,NE,51,3.0,3.0,44,0.00,,---,0.01,VWS V14.01,2013-03-11 15:53:00,
2013-03-11 08:58:00,56.2,34.0,30.16,NE,51,0.0,3.0,43,0.00,,---,0.01,VWS V14.01,2013-03-11 15:58:00,
2013-03-11 09:03:00,57.4,33.9,30.16,NE,51,0.0,1.0,41,0.00,,---,0.01,VWS V14.01,2013-03-11 16:03:00,
2013-03-11 09:08:00,58.7,33.2,30.16,NE,51,0.0,1.0,38,0.00,,---,0.01,VWS V14.01,2013-03-11 16:08:00,
2013-03-11 09:13:00,59.6,32.6,30.16,NE,51,0.0,1.0,36,0.00,,---,0.01,VWS V14.01,2013-03-11 16:13:00,
2013-03-11 09:18:00,60.7,32.2,30.16,NE,51,0.0,0.0,34,0.00,,---,0.01,VWS V14.01,2013-03-11 16:18:00,
2013-03-11 09:23:00,61.9,32.5,30.16,NE,51,0.0,0.0,33,0.00,,---,0.01,VWS V14.01,2013-03-11 16:23:00,
2013-03-11 09:28:00,63.2,32.9,30.15,NE,51,0.0,0.0,32,0.00,,---,0.01,VWS V14.01,2013-03-11 16:28:00,
2013-03-11 09:33:00,65.0,36.0,30.15,NE,51,0.0,0.0,34,0.00,,---,0.01,VWS V14.01,2013-03-11 16:33:00,
2013-03-11 09:38:00,66.5,35.8,30.15,NE,51,0.0,0.0,32,0.00,,---,0.01,VWS V14.01,2013-03-11 16:38:00,
2013-03-11 09:43:00,67.9,37.0,30.15,NE,51,0.0,0.0,32,0.00,,---,0.01,VWS V14.01,2013-03-11 16:43:00,
2013-03-11 09:48:00,69.1,38.8,30.15,NE,51,0.0,1.0,33,0.00,,---,0.01,VWS V14.01,2013-03-11 16:48:00,
2013-03-11 09:53:00,69.5,38.4,30.15,NE,51,0.0,1.0,32,0.00,,---,0.01,VWS V14.01,2013-03-11 16:53:00,
2013-03-11 09:59:00,69.7,38.5,30.15,NE,51,0.0,2.0,32,0.00,,---,0.01,VWS V14.01,2013-03-11 16:59:00,
2013-03-11 10:04:00,69.9,38.7,30.15,NE,51,0.0,1.0,32,0.00,,---,0.01,VWS V14.01,2013-03-11 17:04:00,
2013-03-11 10:09:00,70.3,39.9,30.15,NE,51,0.0,3.0,33,0.00,,---,0.01,VWS V14.01,2013-03-11 17:09:00,
2013-03-11 10:14:00,70.3,39.1,30.15,NE,51,0.0,3.0,32,0.00,,---,0.01,VWS V14.01,2013-03-11 17:14:00,
2013-03-11 10:19:00,70.4,38.3,30.15,NE,51,0.0,2.0,31,0.00,,---,0.01,VWS V14.01,2013-03-11 17:19:00,
2013-03-11 10:24:00,70.5,40.0,30.15,NE,51,0.0,4.0,33,0.00,,---,0.01,VWS V14.01,2013-03-11 17:24:00,
2013-03-11 10:29:00,70.6,37.7,30.15,NE,51,0.0,4.0,30,0.00,,---,0.01,VWS V14.01,2013-03-11 17:29:00,
2013-03-11 10:34:00,70.7,41.0,30.14,NE,51,0.0,3.0,34,0.00,,---,0.01,VWS V14.01,2013-03-11 17:34:00,
2013-03-11 10:39:00,70.4,37.5,30.14,NE,51,0.0,4.0,30,0.00,,---,0.01,VWS V14.01,2013-03-11 17:39:00,
2013-03-11 10:44:00,70.4,39.2,30.14,NE,51,1.0,4.0,32,0.00,,---,0.01,VWS V14.01,2013-03-11 17:44:00,
2013-03-11 10:49:00,70.5,39.2,30.14,NE,51,0.0,3.0,32,0.00,,---,0.01,VWS V14.01,2013-03-11 17:49:00,
2013-03-11 10:54:00,71.3,39.1,30.14,NE,51,0.0,3.0,31,0.00,,---,0.01,VWS V14.01,2013-03-11 17:54:00,
2013-03-11 10:59:00,71.9,41.3,30.14,NE,51,2.0,5.0,33,0.00,,---,0.01,VWS V14.01,2013-03-11 17:59:00,
2013-03-11 11:04:00,71.5,41.7,30.14,NE,51,2.0,5.0,34,0.00,,---,0.01,VWS V14.01,2013-03-11 18:04:00,
2013-03-11 11:09:00,71.0,41.2,30.14,West,259,1.0,6.0,34,0.00,,---,0.01,VWS V14.01,2013-03-11 18:09:00,
2013-03-11 11:14:00,71.1,41.3,30.14,West,259,4.0,6.0,34,0.00,,---,0.01,VWS V14.01,2013-03-11 18:14:00,
2013-03-11 11:19:00,71.3,41.5,30.14,West,259,2.0,4.0,34,0.00,,---,0.01,VWS V14.01,2013-03-11 18:19:00,
2013-03-11 11:24:00,71.6,42.5,30.14,West,260,4.0,4.0,35,0.00,,---,0.01,VWS V14.01,2013-03-11 18:24:00,
2013-03-11 11:29:00,72.0,41.3,30.14,West,263,3.0,5.0,33,0.00,,---,0.01,VWS V14.01,2013-03-11 18:29:00,
2013-03-11 11:34:00,71.7,39.5,30.14,WSW,256,0.0,6.0,31,0.00,,---,0.01,VWS V14.01,2013-03-11 18:34:00,
2013-03-11 11:39:00,71.3,40.7,30.14,SW,217,0.0,6.0,33,0.00,,---,0.01,VWS V14.01,2013-03-11 18:39:00,
2013-03-11 11:44:00,71.5,41.7,30.13,SW,234,0.0,6.0,34,0.00,,---,0.01,VWS V14.01,2013-03-11 18:44:00,
2013-03-11 11:49:00,72.1,42.2,30.14,WSW,249,1.0,6.0,34,0.00,,---,0.01,VWS V14.01,2013-03-11 18:49:00,
2013-03-11 11:54:00,72.4,40.9,30.13,West,259,3.0,6.0,32,0.00,,---,0.01,VWS V14.01,2013-03-11 18:54:00,
2013-03-11 11:59:00,72.4,42.5,30.13,West,273,2.0,6.0,34,0.00,,---,0.01,VWS V14.01,2013-03-11 18:59:00,
2013-03-11 12:04:00,72.6,41.1,30.13,West,273,1.0,2.0,32,0.00,,---,0.01,VWS V14.01,2013-03-11 19:04:00,
2013-03-11 12:09:00,72.9,44.4,30.13,SW,233,3.0,7.0,36,0.00,,---,0.01,VWS V14.01,2013-03-11 19:09:00,
2013-03-11 12:14:00,73.1,43.1,30.12,SW,229,0.0,7.0,34,0.00,,---,0.01,VWS V14.01,2013-03-11 19:14:00,
2013-03-11 12:19:00,73.7,43.6,30.12,SSW,203,4.0,5.0,34,0.00,,---,0.01,VWS V14.01,2013-03-11 19:19:00,
2013-03-11 12:24:00,74.1,43.2,30.12,SW,221,1.0,5.0,33,0.00,,---,0.01,VWS V14.01,2013-03-11 19:24:00,
2013-03-11 12:29:00,74.4,42.7,30.12,SSW,208,1.0,5.0,32,0.00,,---,0.01,VWS V14.01,2013-03-11 19:29:00,
2013-03-11 12:34:00,74.3,43.4,30.12,SW,221,3.0,5.0,33,0.00,,---,0.01,VWS V14.01,2013-03-11 19:34:00,
2013-03-11 12:39:00,74.6,42.8,30.11,WSW,254,0.0,5.0,32,0.00,,---,0.01,VWS V14.01,2013-03-11 19:39:00,
2013-03-11 12:44:00,74.4,41.8,30.11,South,178,3.0,5.0,31,0.00,,---,0.01,VWS V14.01,2013-03-11 19:44:00,
2013-03-11 12:49:00,74.9,42.3,30.11,SW,218,1.0,4.0,31,0.00,,---,0.01,VWS V14.01,2013-03-11 19:49:00,
2013-03-11 12:54:00,74.4,40.1,30.11,West,265,2.0,6.0,29,0.00,,---,0.01,VWS V14.01,2013-03-11 19:54:00,
2013-03-11 12:59:00,74.1,40.7,30.11,West,261,3.0,6.0,30,0.00,,---,0.01,VWS V14.01,2013-03-11 19:59:00,
2013-03-11 13:04:00,74.1,40.7,30.10,West,281,0.0,3.0,30,0.00,,---,0.01,VWS V14.01,2013-03-11 20:04:00,
2013-03-11 13:09:00,74.7,41.2,30.10,West,269,5.0,7.0,30,0.00,,---,0.01,VWS V14.01,2013-03-11 20:09:00,
2013-03-11 13:14:00,75.1,37.9,30.10,WSW,238,2.0,7.0,26,0.00,,---,0.01,VWS V14.01,2013-03-11 20:14:00,
2013-03-11 13:19:00,75.1,41.6,30.10,SSW,202,4.0,5.0,30,0.00,,---,0.01,VWS V14.01,2013-03-11 20:19:00,
2013-03-11 13:24:00,75.4,43.5,30.10,West,267,5.0,5.0,32,0.00,,---,0.01,VWS V14.01,2013-03-11 20:24:00,
2013-03-11 13:29:00,74.8,40.5,30.09,WNW,290,0.0,6.0,29,0.00,,---,0.01,VWS V14.01,2013-03-11 20:29:00,
2013-03-11 13:34:00,74.3,39.1,30.09,WNW,290,0.0,5.0,28,0.00,,---,0.01,VWS V14.01,2013-03-11 20:34:00,
2013-03-11 13:39:00,74.1,42.4,30.08,West,273,2.0,5.0,32,0.00,,---,0.01,VWS V14.01,2013-03-11 20:39:00,
2013-03-11 13:44:00,74.1,39.8,30.08,West,268,5.0,7.0,29,0.00,,---,0.01,VWS V14.01,2013-03-11 20:44:00,
2013-03-11 13:49:00,73.9,39.7,30.08,WNW,282,0.0,4.0,29,0.00,,---,0.01,VWS V14.01,2013-03-11 20:49:00,
2013-03-11 13:54:00,74.2,42.5,30.08,SW,234,0.0,5.0,32,0.00,,---,0.01,VWS V14.01,2013-03-11 20:54:00,
2013-03-11 13:59:00,75.2,44.2,30.07,SW,232,6.0,7.0,33,0.00,,---,0.01,VWS V14.01,2013-03-11 20:59:00,
2013-03-11 14:04:00,75.6,42.9,30.07,WNW,290,0.0,5.0,31,0.00,,---,0.01,VWS V14.01,2013-03-11 21:04:00,
2013-03-11 14:09:00,76.0,44.0,30.07,SW,221,2.0,5.0,32,0.00,,---,0.01,VWS V14.01,2013-03-11 21:09:00,
2013-03-11 14:14:00,76.7,45.5,30.07,SSW,210,0.0,5.0,33,0.00,,---,0.01,VWS V14.01,2013-03-11 21:14:00,
2013-03-11 14:19:00,76.9,43.1,30.07,West,259,4.0,5.0,30,0.00,,---,0.01,VWS V14.01,2013-03-11 21:19:00,
2013-03-11 14:24:00,75.9,43.1,30.06,NNW,331,2.0,7.0,31,0.00,,---,0.01,VWS V14.01,2013-03-11 21:24:00,
2013-03-11 14:29:00,75.5,43.6,30.06,NW,311,7.0,9.0,32,0.00,,---,0.01,VWS V14.01,2013-03-11 21:29:00,
2013-03-11 14:34:00,74.9,42.3,30.06,North,350,0.0,5.0,31,0.01,,---,0.02,VWS V14.01,2013-03-11 21:34:00,
2013-03-11 14:39:00,74.9,43.1,30.06,WNW,296,3.0,5.0,32,0.01,,---,0.02,VWS V14.01,2013-03-11 21:39:00,
2013-03-11 14:44:00,74.4,41.8,30.06,NW,309,4.0,7.0,31,0.01,,---,0.02,VWS V14.01,2013-03-11 21:44:00,
2013-03-11 14:49:00,74.1,44.0,30.06,West,264,0.0,6.0,34,0.01,,---,0.02,VWS V14.01,2013-03-11 21:49:00,
2013-03-11 14:54:00,74.5,41.9,30.06,WNW,296,2.0,6.0,31,0.01,,---,0.02,VWS V14.01,2013-03-11 21:54:00,
2013-03-11 14:59:00,74.5,44.3,30.06,WNW,290,0.0,7.0,34,0.01,,---,0.02,VWS V14.01,2013-03-11 21:59:00,
2013-03-11 15:04:00,74.7,42.9,30.06,West,268,3.0,9.0,32,0.01,,---,0.02,VWS V14.01,2013-03-11 22:04:00,
2013-03-11 15:09:00,74.6,42.8,30.06,WNW,284,0.0,9.0,32,0.01,,---,0.02,VWS V14.01,2013-03-11 22:09:00,
2013-03-11 15:15:00,74.8,46.1,30.05,WSW,250,6.0,9.0,36,0.01,,---,0.02,VWS V14.01,2013-03-11 22:15:00,
2013-03-11 15:20:00,74.8,43.8,30.05,WNW,285,1.0,6.0,33,0.01,,---,0.02,VWS V14.01,2013-03-11 22:20:00,
2013-03-11 15:25:00,74.7,43.7,30.05,SW,228,0.0,8.0,33,0.01,,---,0.02,VWS V14.01,2013-03-11 22:25:00,
2013-03-11 15:30:00,74.9,46.2,30.05,West,259,0.0,8.0,36,0.01,,---,0.02,VWS V14.01,2013-03-11 22:30:00,
2013-03-11 15:35:00,74.9,43.1,30.05,West,271,1.0,6.0,32,0.01,,---,0.02,VWS V14.01,2013-03-11 22:35:00,
2013-03-11 15:40:00,74.7,46.7,30.05,West,280,3.0,9.0,37,0.01,,---,0.02,VWS V14.01,2013-03-11 22:40:00,
2013-03-11 15:45:00,74.8,45.3,30.05,WSW,255,4.0,9.0,35,0.01,,---,0.02,VWS V14.01,2013-03-11 22:45:00,
2013-03-11 15:50:00,75.0,45.5,30.04,West,269,0.0,7.0,35,0.00,,---,0.02,VWS V14.01,2013-03-11 22:50:00,
2013-03-11 15:55:00,74.9,46.9,30.04,WSW,238,3.0,7.0,37,0.00,,---,0.02,VWS V14.01,2013-03-11 22:55:00,
2013-03-11 16:00:00,74.8,46.1,30.04,West,272,0.0,7.0,36,0.00,,---,0.02,VWS V14.01,2013-03-11 23:00:00,
2013-03-11 16:05:00,74.6,46.6,30.04,West,259,3.0,6.0,37,0.00,,---,0.02,VWS V14.01,2013-03-11 23:05:00,
2013-03-11 16:10:00,74.3,44.9,30.04,WSW,256,2.0,7.0,35,0.00,,---,0.02,VWS V14.01,2013-03-11 23:10:00,
2013-03-11 16:15:00,73.9,45.3,30.03,NW,313,1.0,11.0,36,0.00,,---,0.02,VWS V14.01,2013-03-11 23:15:00,
2013-03-11 16:20:00,73.9,47.4,30.04,West,263,3.0,7.0,39,0.00,,---,0.02,VWS V14.01,2013-03-11 23:20:00,
2013-03-11 16:25:00,73.8,45.2,30.03,West,260,5.0,7.0,36,0.00,,---,0.02,VWS V14.01,2013-03-11 23:25:00,
2013-03-11 16:30:00,73.9,46.0,30.03,West,272,0.0,7.0,37,0.00,,---,0.02,VWS V14.01,2013-03-11 23:30:00,
2013-03-11 16:35:00,74.0,48.2,30.03,WSW,238,3.0,5.0,40,0.00,,---,0.02,VWS V14.01,2013-03-11 23:35:00,
2013-03-11 16:40:00,74.0,46.8,30.03,WSW,245,0.0,5.0,38,0.00,,---,0.02,VWS V14.01,2013-03-11 23:40:00,
2013-03-11 16:45:00,73.9,46.0,30.03,NW,325,3.0,6.0,37,0.00,,---,0.02,VWS V14.01,2013-03-11 23:45:00,
2013-03-11 16:50:00,73.4,45.6,30.03,West,263,3.0,6.0,37,0.00,,---,0.02,VWS V14.01,2013-03-11 23:50:00,
2013-03-11 16:55:00,72.9,44.4,30.03,NW,315,0.0,6.0,36,0.00,,---,0.02,VWS V14.01,2013-03-11 23:55:00,
2013-03-11 17:00:00,72.6,46.2,30.03,WSW,256,1.0,6.0,39,0.00,,---,0.02,VWS V14.01,2013-03-12 00:00:00,
2013-03-11 17:05:00,72.3,45.3,30.03,WNW,299,2.0,5.0,38,0.00,,---,0.02,VWS V14.01,2013-03-12 00:05:00,
2013-03-11 17:10:00,72.1,44.4,30.03,NW,309,5.0,6.0,37,0.00,,---,0.02,VWS V14.01,2013-03-12 00:10:00,
2013-03-11 17:15:00,71.5,45.3,30.03,West,278,0.0,7.0,39,0.00,,---,0.02,VWS V14.01,2013-03-12 00:15:00,
2013-03-11 17:20:00,71.3,45.1,30.03,West,261,3.0,6.0,39,0.00,,---,0.02,VWS V14.01,2013-03-12 00:20:00,
2013-03-11 17:25:00,71.3,44.4,30.03,WNW,301,3.0,6.0,38,0.00,,---,0.02,VWS V14.01,2013-03-12 00:25:00,
2013-03-11 17:30:00,70.9,45.4,30.03,WNW,282,1.0,7.0,40,0.00,,---,0.02,VWS V14.01,2013-03-12 00:30:00,
2013-03-11 17:35:00,70.6,43.8,30.03,West,267,0.0,5.0,38,0.00,,---,0.02,VWS V14.01,2013-03-12 00:35:00,
2013-03-11 17:40:00,70.3,44.2,30.03,West,260,3.0,6.0,39,0.00,,---,0.02,VWS V14.01,2013-03-12 00:40:00,
2013-03-11 17:45:00,70.0,42.6,30.03,NW,317,3.0,7.0,37,0.00,,---,0.02,VWS V14.01,2013-03-12 00:45:00,
2013-03-11 17:50:00,69.7,42.3,30.03,WNW,288,0.0,5.0,37,0.00,,---,0.02,VWS V14.01,2013-03-12 00:50:00,
2013-03-11 17:55:00,69.3,42.6,30.03,WNW,292,4.0,5.0,38,0.00,,---,0.02,VWS V14.01,2013-03-12 00:55:00,
2013-03-11 18:00:00,68.9,43.6,30.03,WSW,237,3.0,5.0,40,0.00,,---,0.02,VWS V14.01,2013-03-12 01:00:00,
2013-03-11 18:05:00,68.6,44.6,30.03,SW,223,0.0,4.0,42,0.00,,---,0.02,VWS V14.01,2013-03-12 01:05:00,
2013-03-11 18:10:00,68.2,45.5,30.03,SW,230,1.0,4.0,44,0.00,,---,0.02,VWS V14.01,2013-03-12 01:10:00,
2013-03-11 18:15:00,67.8,45.7,30.03,WSW,250,2.0,4.0,45,0.00,,---,0.02,VWS V14.01,2013-03-12 01:15:00,
2013-03-11 18:20:00,67.4,45.9,30.03,WSW,250,1.0,4.0,46,0.00,,---,0.02,VWS V14.01,2013-03-12 01:20:00,
2013-03-11 18:25:00,67.0,46.1,30.03,West,262,0.0,4.0,47,0.00,,---,0.02,VWS V14.01,2013-03-12 01:25:00,
2013-03-11 18:30:00,66.5,46.8,30.03,WSW,252,1.0,4.0,49,0.00,,---,0.02,VWS V14.01,2013-03-12 01:30:00,
2013-03-11 18:35:00,66.1,46.4,30.03,WSW,250,0.0,0.0,49,0.00,,---,0.02,VWS V14.01,2013-03-12 01:35:00,
2013-03-11 18:40:00,65.6,46.0,30.03,WSW,252,0.0,3.0,49,0.00,,---,0.02,VWS V14.01,2013-03-12 01:40:00,
2013-03-11 18:45:00,65.0,45.4,30.03,West,268,0.0,4.0,49,0.00,,---,0.02,VWS V14.01,2013-03-12 01:45:00,
2013-03-11 18:50:00,64.7,45.7,30.03,WNW,294,0.0,3.0,50,0.00,,---,0.02,VWS V14.01,2013-03-12 01:50:00,
2013-03-11 18:55:00,64.3,45.8,30.03,WNW,294,0.0,3.0,51,0.00,,---,0.02,VWS V14.01,2013-03-12 01:55:00,
2013-03-11 19:00:00,63.9,46.5,30.04,WNW,294,0.0,3.0,53,0.00,,---,0.02,VWS V14.01,2013-03-12 02:00:00,
2013-03-11 19:05:00,63.5,46.6,30.04,WNW,294,0.0,0.0,54,0.00,,---,0.02,VWS V14.01,2013-03-12 02:05:00,
2013-03-11 19:10:00,63.1,46.2,30.04,WNW,294,0.0,0.0,54,0.00,,---,0.02,VWS V14.01,2013-03-12 02:10:00,
2013-03-11 19:15:00,62.9,46.5,30.04,WNW,294,0.0,0.0,55,0.00,,---,0.02,VWS V14.01,2013-03-12 02:15:00,
2013-03-11 19:20:00,62.6,46.7,30.04,WNW,294,0.0,0.0,56,0.00,,---,0.02,VWS V14.01,2013-03-12 02:20:00,
2013-03-11 19:25:00,62.3,46.9,30.04,WNW,294,0.0,0.0,57,0.00,,---,0.02,VWS V14.01,2013-03-12 02:25:00,
2013-03-11 19:30:00,62.1,46.7,30.04,WNW,294,0.0,0.0,57,0.00,,---,0.02,VWS V14.01,2013-03-12 02:30:00,
2013-03-11 19:35:00,61.9,46.5,30.04,WNW,294,0.0,0.0,57,0.00,,---,0.02,VWS V14.01,2013-03-12 02:35:00,
2013-03-11 19:40:00,61.6,46.2,30.04,WNW,294,0.0,0.0,57,0.00,,---,0.02,VWS V14.01,2013-03-12 02:40:00,
2013-03-11 19:45:00,61.2,46.3,30.04,WNW,294,0.0,0.0,58,0.00,,---,0.02,VWS V14.01,2013-03-12 02:45:00,
2013-03-11 19:50:00,60.9,45.6,30.04,WNW,294,0.0,0.0,57,0.00,,---,0.02,VWS V14.01,2013-03-12 02:50:00,
2013-03-11 19:55:00,60.6,45.3,30.04,WNW,294,0.0,0.0,57,0.00,,---,0.02,VWS V14.01,2013-03-12 02:55:00,
2013-03-11 20:00:00,60.3,45.0,30.04,WNW,294,0.0,0.0,57,0.00,,---,0.02,VWS V14.01,2013-03-12 03:00:00,
2013-03-11 20:05:00,60.0,44.7,30.04,WNW,294,0.0,0.0,57,0.00,,---,0.02,VWS V14.01,2013-03-12 03:05:00,
2013-03-11 20:10:00,59.8,45.0,30.04,WNW,294,0.0,0.0,58,0.00,,---,0.02,VWS V14.01,2013-03-12 03:10:00,
2013-03-11 20:15:00,59.5,44.3,30.04,WNW,294,0.0,0.0,57,0.00,,---,0.02,VWS V14.01,2013-03-12 03:15:00,
2013-03-11 20:20:00,59.2,44.0,30.04,WNW,294,0.0,0.0,57,0.00,,---,0.02,VWS V14.01,2013-03-12 03:20:00,
2013-03-11 20:25:00,59.0,43.8,30.04,WNW,294,0.0,0.0,57,0.00,,---,0.02,VWS V14.01,2013-03-12 03:25:00,
2013-03-11 20:30:00,59.0,44.3,30.05,WNW,294,0.0,0.0,58,0.00,,---,0.02,VWS V14.01,2013-03-12 03:30:00,
2013-03-11 20:35:00,58.7,44.0,30.05,WNW,294,0.0,0.0,58,0.00,,---,0.02,VWS V14.01,2013-03-12 03:35:00,
2013-03-11 20:40:00,58.6,43.9,30.05,WNW,294,0.0,0.0,58,0.00,,---,0.02,VWS V14.01,2013-03-12 03:40:00,
2013-03-11 20:45:00,58.4,43.7,30.06,WNW,294,0.0,0.0,58,0.00,,---,0.02,VWS V14.01,2013-03-12 03:45:00,
2013-03-11 20:50:00,58.2,43.5,30.06,WNW,294,0.0,0.0,58,0.00,,---,0.02,VWS V14.01,2013-03-12 03:50:00,
2013-03-11 20:55:00,57.9,43.7,30.06,NE,43,3.0,4.0,59,0.00,,---,0.02,VWS V14.01,2013-03-12 03:55:00,
2013-03-11 21:00:00,57.8,43.6,30.06,NE,43,0.0,4.0,59,0.00,,---,0.02,VWS V14.01,2013-03-12 04:00:00,
2013-03-11 21:05:00,57.6,43.4,30.04,NE,42,0.0,2.0,59,0.00,,---,0.02,VWS V14.01,2013-03-12 04:05:00,
2013-03-11 21:10:00,57.4,43.2,30.04,NE,42,0.0,3.0,59,0.00,,---,0.02,VWS V14.01,2013-03-12 04:10:00,
2013-03-11 21:15:00,57.3,43.1,30.05,NE,43,0.0,3.0,59,0.00,,---,0.02,VWS V14.01,2013-03-12 04:15:00,
2013-03-11 21:20:00,57.1,42.9,30.05,NE,42,3.0,3.0,59,0.00,,---,0.02,VWS V14.01,2013-03-12 04:20:00,
2013-03-11 21:25:00,57.0,43.3,30.05,NE,42,0.0,3.0,60,0.00,,---,0.02,VWS V14.01,2013-03-12 04:25:00,
2013-03-11 21:30:00,56.8,42.6,30.05,NE,42,0.0,3.0,59,0.00,,---,0.02,VWS V14.01,2013-03-12 04:30:00,
2013-03-11 21:35:00,56.8,42.2,30.06,NE,42,0.0,0.0,58,0.00,,---,0.02,VWS V14.01,2013-03-12 04:35:00,
2013-03-11 21:40:00,56.7,41.7,30.06,NE,42,0.0,3.0,57,0.00,,---,0.02,VWS V14.01,2013-03-12 04:40:00,
2013-03-11 21:45:00,56.6,41.6,30.06,NE,43,0.0,3.0,57,0.00,,---,0.02,VWS V14.01,2013-03-12 04:45:00,
2013-03-11 21:50:00,56.3,41.3,30.06,NE,42,0.0,0.0,57,0.00,,---,0.02,VWS V14.01,2013-03-12 04:50:00,
2013-03-11 21:55:00,56.1,41.1,30.06,NE,42,0.0,3.0,57,0.00,,---,0.02,VWS V14.01,2013-03-12 04:55:00,
2013-03-11 22:00:00,55.9,40.9,30.06,NE,43,0.0,3.0,57,0.00,,---,0.02,VWS V14.01,2013-03-12 05:00:00,
2013-03-11 22:05:00,55.7,40.7,30.06,NE,42,2.0,2.0,57,0.00,,---,0.02,VWS V14.01,2013-03-12 05:05:00,
2013-03-11 22:10:00,55.6,40.6,30.06,NE,43,0.0,2.0,57,0.00,,---,0.02,VWS V14.01,2013-03-12 05:10:00,
2013-03-11 22:15:00,55.5,41.0,30.06,NE,43,0.0,3.0,58,0.00,,---,0.02,VWS V14.01,2013-03-12 05:15:00,
2013-03-11 22:20:00,55.3,41.2,30.06,NE,42,0.0,0.0,59,0.00,,---,0.02,VWS V14.01,2013-03-12 05:20:00,
2013-03-11 22:25:00,55.3,41.2,30.06,NE,44,0.0,0.0,59,0.00,,---,0.02,VWS V14.01,2013-03-12 05:25:00,
2013-03-11 22:30:00,55.2,41.1,30.06,NE,43,0.0,0.0,59,0.00,,---,0.02,VWS V14.01,2013-03-12 05:30:00,
2013-03-11 22:35:00,55.1,41.5,30.06,NE,43,0.0,0.0,60,0.00,,---,0.02,VWS V14.01,2013-03-12 05:35:00,
2013-03-11 22:40:00,55.1,41.9,30.06,NE,43,0.0,0.0,61,0.00,,---,0.02,VWS V14.01,2013-03-12 05:40:00,
2013-03-11 22:45:00,55.1,41.9,30.05,NE,43,0.0,0.0,61,0.00,,---,0.02,VWS V14.01,2013-03-12 05:45:00,
2013-03-11 22:50:00,55.1,42.3,30.06,NE,42,0.0,0.0,62,0.00,,---,0.02,VWS V14.01,2013-03-12 05:50:00,
2013-03-11 22:55:00,55.0,41.8,30.05,NE,42,0.0,0.0,61,0.00,,---,0.02,VWS V14.01,2013-03-12 05:55:00,
2013-03-11 23:00:00,54.9,41.7,30.05,NE,42,0.0,0.0,61,0.00,,---,0.02,VWS V14.01,2013-03-12 06:00:00,
2013-03-11 23:05:00,54.6,41.0,30.05,NE,43,0.0,0.0,60,0.00,,---,0.02,VWS V14.01,2013-03-12 06:05:00,
2013-03-11 23:10:00,54.4,40.8,30.05,NE,43,0.0,0.0,60,0.00,,---,0.02,VWS V14.01,2013-03-12 06:10:00,
2013-03-11 23:15:00,54.1,41.0,30.05,NE,43,0.0,0.0,61,0.00,,---,0.02,VWS V14.01,2013-03-12 06:15:00,
2013-03-11 23:20:00,54.0,41.7,30.05,NE,42,0.0,0.0,63,0.00,,---,0.02,VWS V14.01,2013-03-12 06:20:00,
2013-03-11 23:25:00,53.9,42.0,30.05,NE,42,0.0,0.0,64,0.00,,---,0.02,VWS V14.01,2013-03-12 06:25:00,
2013-03-11 23:30:00,53.8,41.9,30.05,NE,44,0.0,0.0,64,0.00,,---,0.02,VWS V14.01,2013-03-12 06:30:00,
2013-03-11 23:35:00,53.6,41.7,30.05,NE,42,0.0,0.0,64,0.00,,---,0.02,VWS V14.01,2013-03-12 06:35:00,
2013-03-11 23:40:00,53.4,41.5,30.06,NE,42,0.0,0.0,64,0.00,,---,0.02,VWS V14.01,2013-03-12 06:40:00,
2013-03-11 23:45:00,53.2,41.3,30.06,NE,43,0.0,0.0,64,0.00,,---,0.02,VWS V14.01,2013-03-12 06:45:00,
2013-03-11 23:50:00,53.0,40.8,30.06,NE,43,0.0,0.0,63,0.00,,---,0.02,VWS V14.01,2013-03-12 06:50:00,
2013-03-11 23:55:00,52.7,40.5,30.05,NE,43,0.0,0.0,63,0.00,,---,0.02,VWS V14.01,2013-03-12 06:55:00,